Location: Mauries
(43.6188°N, 0.3322°W)
Time: 06:33:58
(UTC+00:00)

Envisat - Pass Details

Date: 14 March 2026
Orbit: 761 x 762 km, 98.4° (Epoch: 14 April)

Event Time Altitude Azimuth Distance (km) Brightness Sun altitude
Rises 01:43:49 0° 26° (NNE) 3,233 7.0 -44.1°
Reaches altitude 10° 01:46:33 10° 39° (NE) 2,302 6.1 -43.8°
Enters shadow 01:46:57 12° 42° (NE) 2,180 5.9 -43.7°
